Location: Gaast
(52.9002°N, 5.8891°E)
Time: 06:38:07
(UTC+00:00)

Aureole 3 Rocket - Pass Details

Date: 18 November 2025
Orbit: 398 x 1690 km, 82.5° (Epoch: 11 December)

Event Time Altitude Azimuth Distance (km) Brightness Sun altitude
Rises 16:56:40 0° 167° (SSE) 2,304 6.1 -11.7°
Reaches altitude 10° 16:58:43 10° 156° (SSE) 1,451 4.9 -12.0°
Maximum altitude 17:01:27 31° 91° (E) 762 3.0 -12.4°
Enters shadow 17:03:40 15° 34° (NE) 1,301 4.3 -12.7°
